Погода в Астане

Погода в Астане : погода сейчас, прогноз погоды и архив. Всё, что Вы хотите узнать о погоде в Астане!

Хотите узнать прогноз погоды Астана? Тогда Вам сюда: Погода Астана

Поиск расширенной информации на нашем сайте:

Другие новости

Новости СМИ2

Главная страница сайта

Новости сайта

02.10.2013

Напоминаем, что на нашем новом сайте вы можете получить высокодетализированные прогнозы погоды по пунктам России, СНГ и мира (включающие важные для авиации метеовеличины, такие как направление и скорость ветра, видимость, явления погоды, количество и форма облачности, нижняя и верхняя граница облачности), а также ознакомиться с разнообразными материалами по авиационной метеорологии и подборкой полезных ссылок на эту тему.

Сайт Метеоцентр.Азия посвящён разработке технологий оптимизации авиаметеорологического обслуживания, включая проектирование и перспективное создание нескольких автоматизированных авиаметеорологических систем:
- система выпуска высокодетальных прогностических карт явлений погоды для нижнего воздушного пространства по России и ближнему зарубежью;
- система верификации прогнозов TAF (выпускаемых синоптиками официальных АМСГ РФ и ближнего зарубежья) и AUTOTAF (выпускаемых сайтом Метеоцентр.Азия) - выявление ошибок, онлайн-сопоставление с фактической погодой METAR, автоматическое внесение коррективов в прогнозы при резком отклонении фактической погоды от прогноза, подсчёт оправдываемости прогнозов по элементам и в целом;
- система обработки, анализа и отображения авиаметеорологической информации для применения провайдерами метеорологической информации.


Погода в Астане - сегодня

Время (UTC), дата Ветер
(°,м/с) 
Видим.   Явления Облачность Т
(°С)
Тd
(°С)
f(%) Тe
(°С)
Pmin
(гПа)
dP
(гПа)
Po
(мм)
O2
(г/м3)
Тmin Tmax R s Состояние
почвы
18 19.06.17 тихо ()   н/о    ясно 
+21.6 +7.1 39 +22  1007.8  -0.1  726  270    +28.1       
21 19.06.17 тихо ()   н/о    ясно 
+19.1 +7.8 48 +19  1007.3  -0.8  725  272           
00 20.06.17 тихо ()   10 км    6/0 верхняя 
[Ci fib]
+18.6 +8.6 52 +19  1006.7  -0.6  725  272           
03 20.06.17 210 (ЮЗ) 10 км    4/0 верхняя 
[Ci]
+24.5 +7.2 33 +25  1005.5  -0.4  725  267           
06 20.06.17 270 (З) 10 км    10/5 1500 м верхняя 
[Cu med, cong|Ci]
+28 +5.6 24 +28  1003.8  -1.2  724  264  +16.5         
09 20.06.17 310 (СЗ) 10 км    10/8 1500 м верхняя 
[Cu med, cong|Ci]
+28.3 +6.4 25 +28  1002.6  -1.1  723  263           
12 20.06.17 290 (З) 10 км    10/4 1500 м кучево-дожд., средняя 
[Cb cap|Ac As]
+25.1 +7.7 33 +25  1003.5  0.5  723  266           
15 20.06.17 280 (З) 10 км  в посл. час ливневой дождь  10/10 1500 м кучево-дожд. 
[Cb cap]
+20.8 +8.4 45 +21  1005.5  1.3  724  270    +29.9  0.0     
18 20.06.17 тихо ()   н/о  {ливн. осадки}  ясно 
+18.3 +10.7 61 +21  1005.1  -0.7  724  271    +29.9  0.0     
21 20.06.17 тихо ()   н/о    ясно 
+16.8 +9.7 63 +18  1005  -0.3  724  273           
00 21.06.17 тихо ()   10 км    ясно 
+16.2 +12.4 78 +22  1005.5  0.5  724  273           
03 21.06.17 210 (ЮЗ) 10 км    ясно 
+21.1 +12.5 58 +27  1005.3  0.4  724  268      0.0     
06 21.06.17 210 (ЮЗ) 10 км    6/6 1500 м 
[Cu med, cong]
+26.2 +8.7 33 +26  1004.1  -0.5  724  265  +15.6    0.0     
09 21.06.17 220 (ЮЗ) 10 км    6/6 1500 м 
[Cu med, cong]
+28 +7.3 27 +28  1002.7  -1.2  723  263           
12 21.06.17 200 (Ю) 10 км    3/3 1000 м 
[Cu hum]
+28.5 +5.4 23 +29  1001.8  -0.8  722  263           
15 21.06.17 190 (Ю) 10 км    4/4 1000 м 
[Sc diur, vesp]
+25.9 +8 32 +26  1002.1  722  264    +29.4       
18 21.06.17 160 (Ю) н/о    4/3 1000 м средняя 
[Sc|Ac lent]
+21.6 +8.8 44 +22  1003.3  0.6  723  268    +29.4       
21 21.06.17 010 (С) н/о    ясно 
+18.3 +7.4 49 +20  1004.4  0.6  723  272           
00 22.06.17 тихо ()   10 км    6/6 1000 м 
[Sc]
+16.5 +7.7 56 +17  1005.7  724  274           
03 22.06.17 020 (С) 10 км    ясно 
+21.8 +8.7 43 +22  1006.5  1.5  725  269           
06 22.06.17 310 (СЗ) 10 км    3/0 верхняя 
[Ci fib]
+25.2 +7.4 32 +25  1006.1  0.1  725  266  +16.1         
09 22.06.17 250 (З) 10 км    8/0 верхняя 
[Cc]
+27 +4.7 24 +27  1005.4  -0.5  725  265           
12 22.06.17 240 (ЮЗ) 10 км    6/0 верхняя 
[Ci sp]
+27 +4.1 23 +27  1005.2  -0.2  725  265           
15 22.06.17 260 (З) 10 км    10/0 верхняя 
[Ci sp]
+25.1 +5.8 29 +25  1006.1  0.6  725  267    +28       
18 22.06.17 050 (СВ) н/о    ясно 
+21.4 +7.3 40 +21  1005.8  -0.7  725  270    +28       
Время (UTC), дата Ветер
(°,м/с) 
Видим.   Явления Облачность Т
(°С)
Тd
(°С)
f(%) Тe
(°С)
Pmin
(гПа)
dP
(гПа)
Po
(мм)
O2
(г/м3)
Тmin Tmax R s Состояние
почвы

Для получения пояснительной информации подведите курсор к названию столбца.

ПОГОДА в Астане - архив

Всё, что Вы хотите узнать о погоде в Астане - удобно и подробно!

Выберите нужную дату (начиная с 1 января 2015* года) и нажмите кнопку "Найти".
Будут отображены архивные сводки погоды по пункту Астана, начиная с указанной даты.


Отображать данные в формате CSV (для использования в таблицах Excel)


Внимание! Наш архив погоды предназначен исключительно для личного некоммерческого использования в познавательных целях. Если Вам необходимы официальные справки о состоянии погоды (для производственных, юридических, коммерческих и т.п. целей), обращайтесь в органы Росгидромета.

*Примечание: данная дата относится к архиву по метеостанциям СССР (Россия, СНГ, Балтия).
Архив по метеостанциям Зарубежной Европы и Азии (кроме Китая) хранится 10 дней, по другим регионам земного шара (Китай, Африка, Америка, Австралия, Океания) - 1 день.

Астана - район местоположения метеостанции


Название, широта, долгота, высота метеостанции:
Астана (город) 51.1°ш. 71.4°д. 350 м над ур. моря [Казахстан]

Дополнительная информация

В oтличие oт бoльшинства пoгoдных сайтoв мы публикуем пoдрoбную метеoинфoрмацию в детальнoм прoфессиoнальнoм фoрмате.

Характеристики температуры и влажнoсти вoздуха измеряются на высoте 2 м в тени вдали oт зданий и деревьев.
Скoрoсть ветра измеряется на высoте 10 м (на урoвне рoста челoвека скoрoсть ветра ниже в 1.5-2 раза). Если метеoстанция нахoдится в гoрoде или в лесу, тo скoрoсть ветра занижена на 2-4 м/с пo сравнению с oткрытым местoм. Скoрoсть ветра над акватoриями крупных рек и oзёр, а также на вершинах хoлмoв на 2-5 м/с выше, чем в oбычных услoвиях.
Атмoсфернoе давление в разных тoчках местнoсти мoжет значительнo oтличаться oт давления на метеoстанции, в зависимoсти oт услoвий рельефа (при пoдъёме на 10 м давление пoнижается примернo на 1 мм рт.ст.).